Location: Brantford
(43.1330°N, 80.2670°W)
Time: 15:56:55
(UTC-05:00)

Vanguard 2 Rocket - Visible Passes

Search period start: 15 November 2019 00:00
Search period end: 25 November 2019 00:00
Orbit: 554 x 3326 km, 32.9° (Epoch: 13 November)

Date Brightness Start Highest point End Pass type
(mag) Time Alt. Az. Time Alt. Az. Time Alt. Az.
15 Nov 8.6 03:38:50 31° SE 03:38:50 31° SE 03:45:02 10° ESE visible
15 Nov 8.8 05:44:39 16° WSW 05:50:20 40° S 06:01:47 10° ESE visible
16 Nov 9.7 02:42:46 13° ESE 02:42:46 13° ESE 02:43:45 10° ESE visible
16 Nov 8.1 04:48:35 33° SSW 04:50:33 39° S 05:00:11 10° ESE visible
17 Nov 8.5 03:52:30 32° SSE 03:52:30 32° SSE 03:58:49 10° ESE visible
17 Nov 8.9 05:58:19 12° WSW 06:04:20 32° S 06:14:42 10° SE visible
18 Nov 9.5 02:56:26 14° ESE 02:56:26 14° ESE 02:57:45 10° ESE visible
18 Nov 8.3 05:02:15 28° SW 05:04:32 33° S 05:13:28 10° SE visible
19 Nov 8.4 04:06:12 30° SSE 04:06:12 30° SSE 04:12:23 10° ESE visible
19 Nov 9.1 06:12:30 10° WSW 06:18:22 24° SSW 06:27:03 10° SSE visible
20 Nov 9.4 03:10:08 15° ESE 03:10:08 15° ESE 03:11:34 10° ESE visible
20 Nov 8.5 05:15:57 21° SW 05:18:33 26° S 05:26:21 10° SE visible
21 Nov 8.5 04:19:54 26° S 04:19:54 26° S 04:25:39 10° SE visible
21 Nov 9.3 06:27:54 10° SW 06:32:26 16° SSW 06:38:24 10° SSE visible
22 Nov 9.4 03:23:53 14° SE 03:23:53 14° SE 03:25:08 10° SE visible
22 Nov 8.8 05:29:42 14° SW 05:32:38 18° SSW 05:38:31 10° SSE visible
23 Nov 8.7 04:33:41 20° S 04:33:41 20° S 04:38:25 10° SSE visible
24 Nov 9.4 03:37:41 12° SE 03:37:41 12° SE 03:38:21 10° SE visible
24 Nov 9.2 05:45:01 10° SW 05:46:45 11° SSW 05:48:40 10° S visible
